User: anonymous   Login
Location: Livonia
(42.3680°N, 83.3530°W)
Time: 09:32:51
(UTC-04:00)
Language:

MOZ.5/SAFIR/RUBIN 5/SL-8 - Orbit

View from above orbital plane
View from above orbital plane
View from above satellite
View from above satellite

Ground track
Ground track

The orbit data is extracted from the following two-line orbital elements,

1 28898U 05043G   14296.63479330  .00000675  00000-0  15084-3 0  9601
2 28898 097.8358 119.1209 0019598 355.5641 048.0809 14.59586634478662
Epoch (UTC): 23 October 2014 15:14:06
Eccentricity: 0.0019598
inclination: 97.8358°
perigee height: 680 km
apogee height: 708 km
right ascension of ascending node: 119.1209°
argument of perigee: 355.5641°
revolutions per day: 14.59586634
mean anomaly at epoch: 48.0809°
orbit number at epoch: 47866

The dashed part of the orbit path shows where the satellite is in the earth's shadow,  

DLR